Simultaneous Nadir Overpasses (SNOs) Predictions

Prediction of SNOs between GOES-15 and TERRA Satellite Orbit:

Table of predicted SNOs for the next 14.0 days since TLE Epoch: 9/14/2024
Index Date Time (GOES-15) GOES-15 Lat,Lon TERRA Lat,Lon Distance(km) Time Diff (sec)
1 09/14/2024 17:24:38 0.26, 61.44 0.86, 64.43 339.97 80
2 09/15/2024 05:41:45 -0.28, 61.31 0.06, 59.60 193.14 80
3 09/17/2024 05:26:31 -0.27, 61.30 -0.84, 63.93 299.04 80
4 09/17/2024 17:43:46 0.29, 61.42 -0.19, 59.08 265.56 80
5 09/19/2024 17:28:29 0.28, 61.41 0.68, 63.41 226.97 80
6 09/20/2024 05:45:36 -0.30, 61.29 0.24, 58.59 306.27 80
7 09/22/2024 05:30:17 -0.29, 61.29 -0.62, 62.93 186.52 80
8 09/22/2024 17:47:32 0.31, 61.41 -0.41, 58.09 377.45 80
9 09/24/2024 17:32:12 0.29, 61.42 0.50, 62.43 115.25 80
10 09/25/2024 05:49:18 -0.31, 61.30 0.45, 57.62 418.49 80
11 09/27/2024 05:33:56 -0.30, 61.31 -0.44, 61.97 74.86 80
12 09/27/2024 17:53:50 0.31, 61.43 -0.58, 57.13 488.05 80
